Tous vos exploits sur  Logo Planète Marathon le site 100% Marathon

Marathon d'Azay le Rideau             Note : 13.7 / 20 (4 avis)             Donnez votre avis sur l'édition 2018

AzayLeRideau2018.jpg

Le 15/04/2018 - Edition 2018 - 159 arrivants.                                                       

Clmt. Temps Nom Prénom Club Organisme Catégorie
1 2:43:59 Chevreau Guillaume Entente Sarthe Athletisme S/l V1M/75 (+)
2 2:47:42 Blouin Joel Joue Running V1M/72 (+)
3 2:55:24 Plet Cedric Cap Bollene SEM/83 (+)
4 2:55:45 Poivet Patrick Racing Club Nantais V2M/60 (+)
5 2:56:30 Langer Olivier SEM/82 (+)
6 2:56:39 Stopyra Jean Michel SEM/80 (+)
7 2:57:01 Dupont Fabien SEM/84 (+)
8 2:57:45 Morin Vincent E2a SEM/79 (+)
9 2:59:19 Thevard Stephane Terre De Runing Saumur V1M/78 (+)
10 2:59:25 Fessel Eric V1M/69 (+)
11 2:59:39 Ferghaud Vincent SEM/91 (+)
12 2:59:39 Viollet Remi SEM/91 (+)
13 3:02:51 Mathelier Michel V1M/70 (+)
14 3:03:04 Djoumi Nazih SEM/86 (+)
15 3:03:14 Prod'homme Julien Saint Lo Triathlon SEM/79 (+)
16 3:04:36 Duarte Alain Run79 SEM/83 (+)
17 3:09:12 Beguin Yves V2M/66 (+)
18 3:11:46 Leveau Frederic Eapb V1M/76 (+)
19 3:12:41 Carita Mario V1M/69 (+)
20 3:12:44 Jouffin Laurent V1M/70 (+)
21 3:15:10 Gavini Jean Athletic Couer De Fond V1M/70 (+)
22 3:19:59 Vertino Camille V2M/66 (+)
23 3:20:52 Perdoux Bruno Chartres Metropole Triathlon V1M/78 (+)
24 3:20:55 Guillaumin Roger V3M/56 (+)
25 3:21:40 Audouet David Ruh V2M/68 (+)
26 3:21:50 Fontaine Antoine Xuc SEM/86 (+)
27 3:24:01 Brunet Hugo SEM/93 (+)
28 3:25:22 Lebailles Christophe V1M/71 (+)
29 3:25:40 Dogna Olivier Joggintours V2M/64 (+)
30 3:26:39 Sebastien Thomas V1M/77 (+)
31 3:27:21 Mabilleau Remi SEM/89 (+)
32 3:27:33 Deshaires Jean-pierre Upac Chateau Gontier V3M/58 (+)
33 3:27:44 Chauvel Nicolas SEM/84 (+)
34 3:27:52 Piat Philippe Balgentienne V1M/70 (+)
35 3:28:05 Ouvrard Emmanuel V1M/71 (+)
36 3:29:02 Richard Alain V2M/64 (+)
37 3:30:02 Touchard Pascal Adc Loches V2M/63 (+)
38 3:30:15 Baudry Denys 100 Marathon Club V3M/51 (+)
39 3:30:29 Dubuissert Gilles V1M/73 (+)
40 3:30:43 Cruchet Dany Smac V1M/73 (+)
41 3:31:10 Robert Pascal V1M/71 (+)
42 3:32:20 Maugin Gael V1M/77 (+)
43 3:32:59 Charlier Cedric V1M/73 (+)
44 3:33:13 Berthe Joel S/l Luce Mainvilliers Ptt Athl V3M/54 (+)
45 3:34:27 Peyrot Beatrice V1F/71 (+)
46 3:34:57 Hebert David Ac Veule Les Roses V1M/73 (+)
47 3:35:02 Godard Mickael V1M/77 (+)
48 3:35:40 Lehmann Vincent V1M/75 (+)
49 3:36:20 Leroy Franck V2M/67 (+)
50 3:38:05 Pereira Franck As Ripault SEM/79 (+)
51 3:39:41 Blanchard Nicolas Abv Pouzauges SEM/81 (+)
52 3:39:48 Verdier Jean Louis V1M/76 (+)
53 3:39:51 Ranjard Thierry Thierry Ranjard V1M/71 (+)
54 3:40:19 Triffault Cyril V1M/72 (+)
55 3:40:58 Berton Cyprien SEM/91 (+)
56 3:41:27 Gauthier Vincent SEM/79 (+)
57 3:42:08 Nouge Mickael Smac V1M/71 (+)
58 3:42:39 Daniel Arnaud V1M/78 (+)
59 3:43:12 Thoumoux Roger Abv Pouzauges V2M/59 (+)
60 3:43:19 Croguennec Jeremy SEM/89 (+)
61 3:44:27 Duplaquet Bruno V1M/71 (+)
62 3:45:20 Farnier Mickael V1M/78 (+)
63 3:46:04 Coutant Regis V2M/64 (+)
64 3:47:27 Laroyenne Luc V2M/63 (+)
65 3:47:48 Montheil-carreiro Nicolas College Maurice Genevoix Romor SEM/84 (+)
66 3:48:21 Tourne Pascal Team Bouger Contre La Sla V3M/54 (+)
67 3:48:29 Surbled Michel Reve27 Pacy Menillles V2M/60 (+)
68 3:49:11 Durvaux Nicolas V1M/72 (+)
69 3:50:22 Barbieux Alain Amicale Du Val De Somme V2M/61 (+)
70 3:50:36 Macoin Jerome V2M/61 (+)
71 3:51:31 Berton Maxime SEM/86 (+)
72 3:52:09 Noland Nicolas V1M/72 (+)
73 3:52:38 Bourdin William V1M/70 (+)
74 3:52:42 Siguret Damien Electrons Libres V2M/64 (+)
75 3:52:53 Blanchard Ludovic V1M/73 (+)
76 3:53:00 Doucet Rudy V1M/76 (+)
77 3:53:17 Choserot Quentin Fitdays SEM/95 (+)
78 3:53:18 Lourioux Fabrice V1M/72 (+)
79 3:53:30 Soullard Frantz V2M/67 (+)
80 3:54:04 Nussbaumer Philippe V1M/74 (+)
81 3:54:14 Bitaudeau James V2M/61 (+)
82 3:54:36 Bouchaud Stephane V1M/70 (+)
83 3:55:29 Drouchaux David Ca Chinon V1M/74 (+)
84 3:55:45 Morisset Samuel Cognac Ac SEM/86 (+)
85 3:56:04 Maillet Gregory Esrtt Azay Le Rideau V1M/77 (+)
86 3:57:04 Vialat Jean-philippe Fitdays V1M/70 (+)
87 3:57:04 Recule Herve Fitdays V1M/73 (+)
88 3:57:21 Pastorelli Florent V1M/73 (+)
89 3:57:25 Barbet Arnaud Kikourou SEM/81 (+)
90 3:57:26 Michaud Bernard Perso V2M/61 (+)
91 3:57:36 Follana Stephanie V1F/74 (+)
92 3:57:36 Bourdin Clarisse V1F/72 (+)
93 3:59:08 Bisme Melanie V1F/76 (+)
94 3:59:08 David Frank V2M/67 (+)
95 3:59:17 Bernard Francis V1M/71 (+)
96 3:59:21 Medjahed Afif La Grande Maison V2M/68 (+)
97 3:59:29 Burot Vincent Ar Sud Lac V1M/73 (+)
98 4:00:18 Deplanche Patrice Lacshm V3M/58 (+)
99 4:00:31 Paradis Ludmilla SEF/91 (+)
100 4:00:56 Pironnet Ascori Ascori V3M/58 (+)
101 4:01:28 Cortassa Florence V2F/67 (+)
102 4:02:59 Fidelin Gerard Aca Les Andelys V3M/51 (+)
103 4:03:12 Fremery Jean-michel V3M/56 (+)
104 4:03:25 Lepeltier Mickael Jenmm V1M/75 (+)
105 4:06:19 Iturralde Frederic V2M/66 (+)
106 4:06:55 Seigneurin Alexandre St Microelectronics SEM/80 (+)
107 4:07:20 Cheradame Bruno V2M/68 (+)
108 4:07:21 Fuselier Sebastien V1M/76 (+)
109 4:07:40 Perry Guillaume Procter Et Gamble Amiens V2M/67 (+)
110 4:07:43 Sommer David V1M/78 (+)
111 4:08:21 Lair Helene SEF/80 (+)
112 4:08:27 Boussely Michel V3M/56 (+)
113 4:09:42 Galzin Damien V1M/69 (+)
114 4:09:45 Regnier Jean-francois 12-14 Niort V2M/61 (+)
115 4:10:04 Peninon Jean Pierre Cnav V3M/57 (+)
116 4:11:41 Denise Muriel Running En Vallee 27 Pacy Meni V2F/67 (+)
117 4:13:26 Bourdillon Luc Ac Cloyes V2M/61 (+)
118 4:13:26 Henriet Arnaud Champagne Sur Seine V1M/75 (+)
119 4:15:43 Doret Aurelien SEM/89 (+)
120 4:15:46 Swahn Hans (fin) V2M/68 (+)
121 4:16:24 Brugnieaux Elodie SEF/88 (+)
122 4:17:32 Christine Boucher Non Licencier V2F/68 (+)
123 4:18:42 Benier Annie V3F/56 (+)
124 4:19:43 Carre Sebastien V1M/73 (+)
125 4:20:24 Merle Catherine V2F/60 (+)
126 4:21:10 Beguiristain Laurent V1M/70 (+)
127 4:21:12 Bisme Loic V1M/73 (+)
128 4:23:58 Drot Thierry V1M/73 (+)
129 4:25:18 Caille Dominique V2M/60 (+)
130 4:25:49 Lara Laura Ass Noble Joue SEF/94 (+)
131 4:25:49 Lara Francois Ass Noble Joue V1M/71 (+)
132 4:25:54 Ribanneau Sylvain SEM/81 (+)
133 4:25:54 Jean Amelie V1F/75 (+)
134 4:25:54 Gouhoury Sylvain SEM/80 (+)
135 4:28:06 Pannetier Dominique Us Aigrefeuille Athletisme V3F/50 (+)
136 4:28:40 Godderidge Lidwine SEF/87 (+)
137 4:29:12 Gaillard Eric V2M/68 (+)
138 4:30:01 Deconihout Thierry Les Kekes Du Bocage V2M/63 (+)
139 4:34:10 Desnoyers Pascale Asptt Auxerre V2F/62 (+)
140 4:36:45 Bourdin Timothee SEM/82 (+)
141 4:39:55 Minie Claire Joggintours V1F/77 (+)
142 4:40:21 Burlet-bernard Yannick V1M/75 (+)
143 4:40:52 Salzat Bernard V4M/46 (+)
144 4:40:59 Jouet Thierry V2M/61 (+)
145 4:41:52 Duarte Jose Run79 V2M/66 (+)
146 4:42:03 Rahir Ilda V1F/76 (+)
147 4:44:45 Baron Jacques Kekes Du Bocage V2M/65 (+)
148 4:48:02 Debus Cecile Vaincre Parkinson SEF/86 (+)
149 4:48:26 Pietrulla Frederic Endurance23 V1M/72 (+)
150 4:53:58 Galice Laure Soh Houilles V1F/73 (+)
151 4:53:59 Jezequel Philippe V2M/60 (+)
152 4:54:24 Michelet Stephane Ac Cloyes V2M/68 (+)
153 4:56:43 Pavan Jean-paul Asptt Auxerre V3M/56 (+)
154 4:56:52 Guyon Claude Ussp V2M/64 (+)
155 4:58:13 Coxo Jean Smac V4M/46 (+)
156 4:58:24 Rougier Simon V2M/59 (+)
157 5:13:25 Simeoni Joel V4M/48 (+)
158 5:14:15 Artiga Denis SEM/80 (+)
159 5:24:14 Albenesius Francois La Saline V3M/55 (+)